Terug naar catalogus

KUIPER-00170

ActiefCommunicatieLEO
NORAD 65783·PAYLOAD·🇺🇸 United States

Gelanceerd Sep 25, 2025 vanaf Cape Canaveral Space Force Station

Loading…

Volgende Passages (komende 24 uur)

TLE

VersSource: CelesTrak SupGP

Epoch: Sep 14, 2026, 21:13 UTC

1 65783C 25217X   26257.88467593  .00001818  00000+0  23810-3 0  2579
2 65783  51.8977 281.4483 0000529  73.0359 346.6888 14.79914050    15

Volg KUIPER-00170 in realtime met AllMySat

Download on the App Store